Location: Allos
(44.2333°N, 6.6333°E)
Time: 09:45:29
(UTC+00:00)

COSMO-SKYMED 1 - Pass Details

Date: 01 December 2020
Orbit: 621 x 623 km, 97.9° (Epoch: 26 January)

Event Time Altitude Azimuth Distance (km) Brightness Sun altitude
Exits shadow 17:23:43 14° 25° (NNE) 1,765 4.5 -15.3°
Maximum altitude 17:27:21 51° 100° (E) 786 2.7 -15.9°
Drops below altitude 10° 17:31:34 10° 176° (S) 1,987 5.3 -16.6°
Sets 17:33:48 0° 182° (S) 2,888 6.2 -17.0°
